Weather in Tambitsy

Russia / Republic of Karelia     62˚29′34″N   36˚09′19″E
temp.,
°C
wind,
m/s
gust,
m/s
humid.,
%
clouds,
%
prec.,
mm/h
press.,
hPa
HPBL,
m
16 january, sat
sat1600:00−25˚ene119517 0.0 101920
03:00−25˚ne129238 0.0 102020
06:00−24˚nne229480 0.0 101920
09:00−23˚nne229483 0.0 102020
12:00−20˚nne129428 0.0 101937
15:00−20˚n129515 0.0 101820
18:00−21˚nnw12970 0.0 101720
21:00−20˚nnw129919 0.0 101620
17 january, sun
sun1700:00−19˚w1110082 0.0 101420
03:00−20˚wsw1210081 0.0 101420
06:00−18˚sw129894 0.1 101225
09:00−17˚sw229897 0.2 101255
12:00−14˚sw2397100 0.1 1011123
15:00−12˚sw259799 0.2 1011146
18:00−12˚sw2597100 0.1 1010134
21:00−10˚wsw2598100 0.3 1010135
18 january, mon
mon1800:00−11˚wsw2299100 0.1 101032
03:00−11˚w229799 0.2 101168
06:00−12˚w239786 0.1 101075
09:00−12˚wnw129791 0.2 101120
12:00−11˚w1197100 0.0 101242
15:00−11˚w1198100 0.1 101221
18:00−13˚sw129996 0.0 101221
21:00−11˚ssw129798 0.2 101322
19 january, tue
tue1900:00−11˚ssw1297100 0.1 101240
03:00−9˚sw2497100 0.3 1012112
06:00−10˚wsw2498100 0.1 1011122
09:00−10˚sw2697100 0.3 1010146
12:00−9˚sw379694 0.2 1010317
15:00−9˚sw269795 0.4 1009241
18:00−9˚sw269798 0.3 1008165
21:00−8˚sw269797 0.7 1008195
20 january, wed
wed2000:00−7˚wsw3896100 0.6 1008333
03:00−6˚wsw3996100 1.3 1008479
06:00−6˚wsw3896100 0.6 1008411
09:00−7˚wsw3896100 1.2 1008361
12:00−7˚wsw3795100 0.6 1009437
15:00−7˚sw3795100 1.1 1008401
18:00−7˚sw3896100 0.6 1009381
21:00−8˚sw3795100 1.1 1008317